This is the latest recevied weather packets stored in our database for station/object KC3BHK-2. If no packets are shown the sender has not sent any weather packets the latest 10 day(s).
| Time | Temp. | Humidity | Pressure | Rain* | Wind** | Luminosity | Snow |
|---|---|---|---|---|---|---|---|
| 1778105625 | 20.56° C | - | - | 0 mm | 0 m/s | - | - |
| 1778105320 | 20.56° C | - | - | 0 mm | 0 m/s | - | - |
| 1778105015 | 20.56° C | - | - | 0 mm | 0.89 m/s, 186° | - | - |
| 1778104707 | 20.56° C | - | - | 0 mm | 0.45 m/s, 153° | - | - |
| 1778104401 | 20° C | - | - | 0 mm | 1.34 m/s, 212° | - | - |
| 1778104096 | 19.44° C | - | - | 0 mm | 1.34 m/s, 194° | - | - |
| 1778103791 | 19.44° C | - | - | 0 mm | 1.34 m/s, 240° | - | - |
| 1778103486 | 20° C | - | - | 0 mm | 0.89 m/s, 198° | - | - |
| 1778103181 | 20° C | - | - | 0 mm | 1.34 m/s, 215° | - | - |
| 1778102873 | 20° C | - | - | 0 mm | 1.34 m/s, 214° | - | - |
| 1778102568 | 20.56° C | - | - | 0 mm | 0.89 m/s, 190° | - | - |
| 1778102264 | 20° C | - | - | 0 mm | 0.89 m/s, 139° | - | - |
| 1778101959 | 19.44° C | - | - | 0 mm | 0.89 m/s, 153° | - | - |
| 1778101653 | 18.89° C | - | - | 0 mm | 0.89 m/s, 143° | - | - |
| 1778101348 | 18.33° C | - | - | 0 mm | 0.89 m/s, 169° | - | - |
| 1778101039 | 18.33° C | - | - | 0 mm | 2.68 m/s, 142° | - | - |
| 1778100734 | 18.89° C | - | - | 0 mm | 0 m/s | - | - |
| 1778100430 | 18.89° C | - | - | 0 mm | 0 m/s | - | - |
| 1778100124 | 18.89° C | - | - | 0 mm | 0 m/s | - | - |
| 1778099818 | 18.89° C | - | - | 0 mm | 0 m/s | - | - |
| 1778099513 | 18.89° C | - | - | 0 mm | 0.89 m/s, 195° | - | - |
| 1778099206 | 18.89° C | - | - | 0 mm | 0 m/s | - | - |
| 1778098901 | 19.44° C | - | - | 0 mm | 0 m/s | - | - |
| 1778098596 | 18.89° C | - | - | 0 mm | 0.89 m/s, 193° | - | - |
| 1778098291 | 19.44° C | - | - | 0 mm | 0.89 m/s, 148° | - | - |
* Rain latest hour (hover to see other rain measurements)
** Current wind speed in m/s (hover to see current wind gust speed)